STARLINK-1737 (46586 NORAD) Tracking and Keplerian Element Data

This shows tracking and keplerian element data for the satellite.

Feedback or suggestion? Click here.




ElementValue
Catalog46586
NameSTARLINK-1737
Epoch Orbit178
Epoch Day332.91668981
Epoch Year2020
RAAN184.7955
Inclination53.0006
Eccentricity0.0001817
Argument of Perigee32.7431
Mean Anonmoly183.9157
Mean Motion15.62789161
Decay Rate-0.00075256
L11 46586U 20070BG 20332.91668981 -.00075256 00000-0 -82243-3 0 9995
L22 46586 53.0006 184.7955 0001817 32.7431 183.9157 15.62789161 1787

Live tracking and technical data element details for STARLINK-1737 (NORAD 46586). STARLINK-1737 can be tracked NOW for your location showing map with azimuth and elevation plus other details from your city location.

Track the satellite on the map from your city or location and see movement details for azimuth, elevation, latitude, longitude, range, height, and movement on the map or in text.







IsCatalogInMostPopularTable: catalog: 46586, numindb: 13
Update: records affected: 1



GetName: 46586 STARLINK-1737

Hit Count: updated at: Sun, 29 Nov 2020 09:42:16 GMT